Weather Roundup
Issued by NWS Chicago, IL

Home | Current Version | Previous Version | Text Only | Print | Product List | Glossary On
Versions: 1 2 3 4 5 6 7 8 9 10 11 12 13 14 15 16 17 18 19 20 21 22 23 24 25 26 27 28 29 30 31 32 33 34 35 36 37 38 39 40 41 42 43 44 45 46 47 48 49 50
000
NZUS59 KLOT 260810
HRRLOT

CHICAGO AREA WEATHER ROUNDUP
NATIONAL WEATHER SERVICE CHICAGO/ROMEOVILLE IL
300 AM CDT SUN OCT 26 2014

NOTE: "FAIR" INDICATES FEW OR NO CLOUDS BELOW 12,000 FEET WITH NO
SIGNIFICANT WEATHER AND/OR OBSTRUCTIONS TO VISIBILITY.

* THESE STATIONS ARE NOT UNDER NWS QUALITY CONTROL. THEY ALSO MAY NOT
  REPORT WEATHER SUCH AS PRECIPITATION OR FOG.

ILZ005-006-012>014-019>023-260900-
NORTHEAST ILLINOIS

CITY           SKY/WX    TMP DP  RH WIND       PRES   REMARKS
OHARE          CLEAR     48  29  47 NW9       30.00R
MIDWAY         CLEAR     50  30  46 NW7       30.00R
AURORA         CLEAR     34  29  82 W7        30.02R WCI  28
LANSING*       CLEAR     43  31  64 NW3       30.00R
JOLIET*        CLEAR     46  31  55 CALM      30.01R
WAUKEGAN       CLEAR     47  28  47 NW6       29.99R
DUPAGE AIRPORT CLEAR     48  29  47 NW10      30.00R
WHEELING       CLEAR     50  28  42 NW8       30.01R
KANKAKEE*      CLEAR     40  37  88 W5        30.02S
MORRIS*        CLEAR     40  34  80 W5        30.01S
LEWIS AIRPORT* CLEAR     41  32  71 NW5       30.01S
NORTHERLY IS     N/A     56  26  31 NW12        N/A
$$

WIZ051-052-058>065-066-070>072-260900-
SOUTHEAST WISCONSIN

CITY           SKY/WX    TMP DP  RH WIND       PRES   REMARKS
MILWAUKEE      CLEAR     49  27  42 NW8       29.98R
KENOSHA*       CLEAR     47  29  49 NW5       29.99R
RACINE*        CLEAR     47  28  47 NW7       30.00R
BURLINGTON     CLEAR     44  29  54 NW9       29.99S
WAUKESHA       CLEAR     43  30  61 W9        30.00R
WEST BEND      CLEAR     43  28  56 W7        29.98R
$$

INZ001>003-010>013-019-020-260900-
NORTHWEST INDIANA

CITY           SKY/WX    TMP DP  RH WIND       PRES   REMARKS
GARY*          CLEAR     49  31  49 W7        30.00R
MICHIGAN CITY* NOT AVBL
RENSSELAER*    NOT AVBL
VALPARAISO     CLEAR     52  32  46 NW6       29.99R
$$

LMZ740>746-260900-
SOUTHERN LAKE MICHIGAN

STATION/POSITION TIME  SKY/WX   TEMP WIND        PRES    VSBY
                                AIR  DIR/SP/G
                 (UTC)          (F)  (DEG/KT/KT) (MB)    (MI)
HARRISON CRIB    0700            57  300/ 17/ 22   N/A
BURNHAM HARBOR   0800            56  310/ 10/ 16   N/A
CALUMET HARBOR   0800            52  280/  4/  6 1014.5R
BURNS HARBOR     NOT AVBL
MICHIGAN CITY    0800            56  290/ 18/ 21   N/A
$$

ABBREVIATIONS USED IN REMARKS
   TC - TEMPERATURE IN CELSIUS
  WCI - WIND CHILL INDEX
   HX - HEAT INDEX
  VSB - VISIBILITY
$$



USA.gov is the U.S. government's official web portal to all federal, state and local government web resources and services.